www.pogodaiklimat.ru

Погода и климат >> Архив погоды >> Португалия >> Флошир


ПОГОДА на Флошише

  • Прогноз погоды на Флошише
  • Монитор погоды на Флошише

АРХИВ ПОГОДЫ на Флошише

Время (UTC), дата Ветер
(напр.,м/с)
 
Видим.   Явления Облачность Т
(С)
Тd
(С)
f
(%)
Тe
(С)
Тes
(С)
Комфортность P
(гПа)
Po
(гПа)
Тmin
(С)
Tmax
(С)
R
(мм)
R24
(мм)
S
(см)
21 16.07 Ю 4-8
{9}
н/о н/о +22.6 +18.5 78 +28 +28 душно 1026.1 1022.5
00 17.07 Ю 2
{6}
н/о н/о +22.0 +20.2 90 +28 +28 душно 1027.0 1023.5
03 17.07 Ю 3
{5}
н/о н/о +22.0 +22.0 100 +29 +29 очень
душно
1026.1 1022.6
06 17.07 ЮЗ 1 н/о н/о +20.3 +20.3 100 +26 +26 душно 1025.6 1022.0 +20.0
09 17.07 С 3
{5}
40 км 1/1 600 м
[Cu Sc]
+24.4 +19.2 73 +29 +32 душно 1026.1 1022.6
12 17.07 С 2
{7}
40 км 1/1 600 м
[Cu Sc Ac lent]
+25.5 +19.7 70 +31 +45 очень
душно
1026.6 1023.1
15 17.07 С 2
{7}
12 км слаб. ливневой дождь 9/9 450 м
[Cu Sc Ac lent]
+23.1 +22.4 96 +32 +34 очень
душно
1026.7 1023.1
18 17.07 В 3
{6}
25 км {ливн. осадки} 1/1 540 м
[Cu Sc]
+26.1 +21.0 74 +33 +39 очень
душно
1025.6 1022.1 +26.9
21 17.07 нст 1 н/о н/о +23.4 +20.3 83 +31 +31 очень
душно
1025.9 1022.3
00 18.07 С 1 н/о н/о +22.1 +20.8 92 +28 +28 душно 1026.3 1022.8
03 18.07 З 1 н/о н/о +20.7 +20.7 100 +27 +27 душно 1025.4 1021.8
06 18.07 ЮЗ 2 н/о н/о +21.7 +21.2 97 +28 +28 душно 1024.6 1021.1 +20.3
09 18.07 С 1 30 км 4/4 500 м
[Cu Sc]
+24.9 +18.9 69 +30 +32 душно 1024.7 1021.2
12 18.07 ЮЗ 3-7
{8}
35 км 3/3 500 м
[Cu Sc Ac lent Ci fib]
+27.1 +19.5 63 +33 +42 очень
душно
1024.9 1021.4
15 18.07 Ю 3-6
{9}
35 км 4/4 540 м
[Cu Sc Ac lent]
+25.8 +19.6 69 +31 +41 очень
душно
1023.7 1020.3
18 18.07 Ю 4-6
{8}
35 км 3/3 540 м
[Cu Sc Ac lent]
+26.1 +19.3 66 +31 +35 очень
душно
1023.0 1019.5 +27.7
21 18.07 С 1
{6}
н/о н/о +24.3 +18.6 71 +29 +29 душно 1022.9 1019.4
00 19.07 С 2
{5}
н/о н/о +24.1 +19.0 73 +29 +29 душно 1023.1 1019.6
03 19.07 З 4-7
{8}
н/о н/о +24.0 +19.7 77 +29 +29 душно 1022.3 1018.8
06 19.07 С 2
{6}
н/о н/о +23.7 +18.9 74 +28 +28 душно 1022.1 1018.6 +22.7
09 19.07 З 3-8
{8}
20 км в посл. час ливневой дождь 6/6 450 м
[Cu Sc Ac lent]
+23.8 +20.0 79 +29 +30 душно 1022.5 1019.0
12 19.07 З 3-7
{8}
22 км {ливн. осадки} 4/4 500 м
[Cu Sc Ac lent]
+25.3 +20.1 73 +31 +39 очень
душно
1022.8 1019.3 0.3
15 19.07 ЮЗ 4-9
{10}
28 км 3/3 540 м
[Cu Sc Ac lent]
+26.6 +19.4 65 +32 +41 очень
душно
1022.0 1018.5
18 19.07 С 2
{7}
30 км 1/1 540 м
[Cu Sc]
+26.3 +19.7 67 +32 +39 очень
душно
1021.5 1018.1 +27.8 0.3
21 19.07 С 2
{6}
н/о н/о +24.1 +18.0 69 +28 +28 душно 1021.8 1018.3
00 20.07 С 3
{6}
н/о н/о +23.7 +18.8 74 +28 +28 душно 1022.2 1018.7
03 20.07 ЮВ 3
{5}
н/о н/о +23.3 +18.5 74 +29 +29 душно 1020.8 1017.3
06 20.07 С 3-7
{7}
н/о н/о +23.7 +18.7 74 +28 +28 душно 1020.1 1016.6 +23.0
09 20.07 Ю 3
{7}
30 км 6/6 480 м
[Cu Sc Ci fib]
+23.9 +20.1 79 +29 +31 душно 1020.0 1016.6
12 20.07 Ю 5-9
{12}
30 км {ливн. осадки} 6/6 540 м
[Cu Sc Ac lent Ci fib]
+25.4 +20.2 73 +31 +35 очень
душно
1020.3 1016.9 0.3
15 20.07 Ю 6-11
{14}
30 км 1/1 570 м
[Cu Sc Ac lent Ci fib]
+26.0 +18.3 63 +31 +37 очень
душно
1019.7 1016.2
18 20.07 Ю 5-8
{10}
30 км 3/3 570 м
[Cu Sc Ac lent Ci fib]
+24.9 +19.6 72 +30 +33 душно 1019.0 1015.5 +27.2 0.3
21 20.07 Ю 6-11
{13}
н/о н/о +23.7 +18.6 73 +28 +28 душно 1018.2 1014.8
00 21.07 Ю 6-10
{13}
н/о н/о +22.7 +19.4 82 +29 +29 очень
душно
1017.7 1014.2 0.9
03 21.07 Ю 8-13
{13}
н/о н/о +22.8 +19.8 83 +29 +29 очень
душно
1015.6 1012.1
06 21.07 Ю 5-11
{19}
н/о н/о +23.0 +19.4 80 +29 +29 очень
душно
1014.2 1010.7 +22.3 0.9
09 21.07 Ю 7-14
{14}
28 км 4/4 540 м
[Cu Sc Ac lent]
+23.9 +19.2 75 +29 +29 душно 1014.0 1010.5
12 21.07 Ю 10-21
{21}
26 км 5/5 540 м
[Cu Sc Ac lent Ci fib]
+25.4 +20.2 73 +31 +32 очень
душно
1013.4 1009.9
15 21.07 Ю 9-16
{19}
24 км 8/6 540 м
[Cu Sc Ac lent Ci sp]
+25.9 +20.8 73 +32 +33 очень
душно
1012.5 1009.1
18 21.07 Ю 10-21
{21}
20 км 8/8 480 м
[Cu Sc Ac lent Ci sp]
+24.9 +20.8 78 +31 +31 очень
душно
1010.7 1007.3 +27.4
21 21.07 ЮЗ 8-13
{25}
н/о н/о +23.2 +19.5 80 +30 +30 очень
душно
1010.9 1007.4
00 22.07 С 4-9
{13}
н/о н/о +22.4 +16.1 68 +27 +27 душно 1012.8 1009.3 7
03 22.07 З 4-10
{12}
н/о н/о +22.6 +16.7 69 +27 +27 душно 1012.6 1009.2
06 22.07 С 1
{5}
н/о н/о +20.5 +14.9 70 +24 +24 комфорт 1012.9 1009.4 +20.4 7
09 22.07 штиль 0 30 км 8/5 540 м
[Cu Sc Ac lent Ci sp]
+21.8 +17.0 74 +26 +28 душно 1014.7 1011.2
12 22.07 СЗ 3-6
{7}
30 км 1/1 660 м
[Cu Sc]
+24.8 +17.0 62 +29 +40 душно 1015.6 1012.2
15 22.07 С 2-5
{8}
30 км 5/5 600 м
[Cu Sc]
+24.7 +17.4 64 +29 +38 душно 1016.0 1012.5
18 22.07 С 3
{8}
24 км 8/6 600 м
[Cu Sc Ac lent Ci fib]
+24.6 +18.0 67 +29 +31 душно 1016.0 1012.5 +26.3
21 22.07 С 2
{5}
25 км 6/4 500 м
[Cu Sc Ac lent Ci sp]
+22.8 +18.9 79 +29 +29 очень
душно
1016.6 1013.1
00 23.07 СЗ 3-5
{6}
н/о н/о +21.5 +18.8 85 +26 +26 душно 1017.5 1014.0
03 23.07 ЮЗ 2 н/о н/о +18.5 +15.8 84 +20 +20 1017.1 1013.5
06 23.07 С 1 н/о н/о +19.6 +15.4 77 +23 +23 комфорт 1017.0 1013.5 +18.0
09 23.07 ЮЗ 4-8
{8}
28 км 3/1 570 м
[Cu Sc Ac lent Ci sp]
+23.0 +17.3 70 +28 +30 душно 1016.6 1013.1
12 23.07 ЮВ 3-7
{11}
26 км 6/6 500 м
[Cu Sc Ac lent Ci sp]
+23.8 +20.6 82 +30 +35 очень
душно
1015.9 1012.4
15 23.07 ЮЗ 4-11
{18}
26 км 3/3 540 м
[Cu Sc Ac lent Ci fib]
+27.2 +20.8 68 +34 +43 очень
душно
1014.0 1010.5

 

Местоположение метеостанции Флошир (Португалия): широта 39.45 долгота -31.13 высота над уровнем моря 29 м.

В архиве по умолчанию представлена погода на Флошише за последнюю неделю. Архивные данные за месяц целиком и за предыдущие месяцы, начиная с января 2011 года, Вы можете получить, выбрав интересующий диапазон дат из раскрывающегося списка и нажав кнопку "Ввод!".


*Определитесь, кто Вы:
робот инопланетянин человек

Внимание! Время в таблицах - всемирное. Для получения местного времени необходимо прибавить поправку, которая равна 0 ч.

Смотрите также архив погоды в соседних городах и на ближайших метеорологических станциях:

Погода в Каштелу-Бранку (Португалия) (233 км)
Погода в Орте (Португалия) (240 км)
Погода в Пико (Португалия) (253 км)
Погода на Острове Грасьоса (Португалия) (270 км)
Погода в Сан-Жоржи (Португалия) (270 км)
Погода в Ангра-ду-Эроижму (Португалия) (349 км)
Погода в Аэропорту Лажеша (Португалия) (356 км)
Погода в Понта-Делгаде (Португалия) (509 км)
Погода в Санта-Марии (Португалия) (590 км)
Погода в Фуншале (Португалия) (1485 км)

Пояснения к столбцам:

Ветер - указаны скорость ветра в м/с - средняя за 10 мин, порывы в срок и между сроками (в фигурных скобках) и направление, откуда дует ветер: С - северный, СВ - северо-восточный, В - восточный, ЮВ - юго-восточный, Ю - южный, ЮЗ - юго-западный, З - западный, СЗ - северо-западный.
Видимость - горизонтальная дальность видимости в метрах или километрах. При видимости от 1 до 10 км при отсутствии осадков обычно наблюдается дымка, при ухудшении видимости до 1 км и менее - туман. В сухую погоду видимость может ухудшаться дымом, пылью или мглою.
Явления - указаны атмосферные явления, наблюдавшиеся в срок или в последний час перед сроком; фигурными скобками обозначены явления, наблюдавшиеся между сроками (за 1-3 часа до срока); квадратными скобками обозначены град или гололедные отложения с указанием их диаметра в мм.
Облачность - указаны через наклонную черту общая и нижняя облачность в баллах и высота нижней границы облаков в метрах; квадратными скобками обозначены формы облаков: Ci - перистые, Cs - перисто-слоистые, Cc - перисто-кучевые, Ac - высококучевые, As - высокослоистые, Sc - слоисто-кучевые, Ns - слоисто-дождевые, Cu - кучевые, Cb - кучево-дождевые. Подробнее классификацию облаков см. в Атласе облаков (PDF).
T - Температура воздуха - температура, измеренная на высоте 2 м над землей.
Td - Температура точки росы - температура, при понижении до которой содержащийся в воздухе водяной пар достигнет насыщения.
f - Относительная влажность воздуха - влажноcть воздуха, измеренная на высоте 2 м над землей.
Te - Эффективная температура - температура, которую ощущает одетый по сезону человек в тени. Характеристика душности погоды. При расчете учитывается влияние влажности воздуха и скорости ветра на теплоощущения человека.
Tes - Эффективная температура на солнце - температура, которую ощущает человек, с поправкой на солнечный нагрев. Характеристика знойности погоды. Зависит от высоты солнца над горизонтом, облачности и скорости ветра. Ночью, в пасмурную погоду, а также при ветре 12 м/с и более поправка равна нулю.
P - Атмосферное давление - приведенное к уровню моря атмосферное давление.
Po - Атмосферное давление - измеренное на уровне метеостанции атмосферное давление.
Tmin - Минимальная температура - минимум температуры воздуха на высоте 2 м над землей.
Tmax - Максимальная температура - максимум температуры воздуха на высоте 2 м над землей.
R - Количество осадков - Количество выпавших осадков за период времени, мм. При наведении курсора мыши на число - период времени, за который выпало указанное количество осадков.
R24 - Количество осадков - Количество выпавших осадков за 24 часа, мм.
S - Снежный покров - Высота снежного покрова, см. При наведении курсора мыши на число - состояние снежного покрова и степень покрытия местности в баллах.